Altoona, PA

8:49 AM EDT on October 23, 2019 (GMT -0400)
Altoona-Blair County

Weather History for KAOO - August, 2019

Change the Weather History Date:

Monday, August 26, 2019

  Actual Average Record
Temperature  
Mean Temperature 62 °F 68 °F  
Max Temperature 73 °F 79 °F 96 °F (1948)
Min Temperature 51 °F 57 °F 44 °F (1963)
Degree Days  
Heating Degree Days 3 1  
Month to date heating degree days 9 18  
Since 1 June heating degree days 47 86  
Since 1 July heating degree days 9 28  
Cooling Degree Days 0 4  
Month to date cooling degree days 168 136  
Year to date cooling degree days 630 463  
Since 1 June cooling degree days 561 430  
Growing Degree Days 13 (Base 50)    
Moisture  
Dew Point 53 °F    
Average Humidity 71    
Maximum Humidity 93    
Minimum Humidity 49    
Precipitation  
Precipitation 0.00 in 0.11 in 1.28 in (2003)
Month to date precipitation 2.34 2.50  
Year to date precipitation 29.24 23.42  
Sea Level Pressure  
Sea Level Pressure 30.18 in    
Wind  
Wind Speed 5 mph (SE)    
Max Wind Speed 14 mph    
Max Gust Speed 20 mph    
Visibility 10 miles    
Events      
T = Trace of Precipitation, MM = Missing Value Source: NWS Daily Summary

Daily Weather History Graph

Daily Weather History Graph

Search for Another Location

Airport or City:

Astronomy

Aug. 26, 2019 Rise Set
Actual Time 6:34 AM EDT 7:54 PM EDT
Civil Twilight 6:06 AM EDT 8:23 PM EDT
Nautical Twilight 5:32 AM EDT 8:56 PM EDT
Astronomical Twilight 4:56 AM EDT 9:32 PM EDT
Moon 1:57 AM EDT (8/26) 5:16 PM EDT (8/26)
Length of Visible Light 14h 16m
Length of Day
13h 20m
Waning Crescent, 19% of the Moon is Illuminated
Aug 26
Waning Crescent
Aug 30
New
Sep 5
First Quarter
Sep 14
Full
Sep 21
Last Quarter

Hourly Weather History & Observations

Time (EDT) Temp. Dew Point Humidity Pressure Visibility Wind Dir Wind Speed Gust Speed Precip Events Conditions
12:53 AM 57.9 °F 51.1 °F 78% 30.22 in 10.0 mi SE 3.5 mph - N/A   Clear
1:53 AM 55.9 °F 51.1 °F 84% 30.21 in 10.0 mi ESE 4.6 mph - N/A   Clear
2:53 AM 55.0 °F 50.0 °F 83% 30.20 in 10.0 mi Calm Calm - N/A   Clear
3:53 AM 53.1 °F 48.9 °F 86% 30.21 in 10.0 mi NW 4.6 mph - N/A   Clear
4:53 AM 53.1 °F 48.9 °F 86% 30.22 in 10.0 mi Calm Calm - N/A   Scattered Clouds
5:00 AM 53.1 °F 50.0 °F 89% 30.23 in 10.0 mi Calm Calm - N/A   Mostly Cloudy
5:53 AM 54.0 °F 51.1 °F 90% 30.21 in 10.0 mi ENE 3.5 mph - N/A   Overcast
6:13 AM 53.1 °F 50.0 °F 89% 30.22 in 10.0 mi Calm Calm - N/A   Scattered Clouds
6:53 AM 53.1 °F 50.0 °F 89% 30.22 in 9.0 mi Calm Calm - N/A   Partly Cloudy
7:43 AM 57.0 °F 53.1 °F 87% 30.24 in 10.0 mi Calm Calm - N/A   Mostly Cloudy
7:53 AM 57.9 °F 54.0 °F 87% 30.23 in 10.0 mi Calm Calm - N/A   Mostly Cloudy
8:53 AM 59.0 °F 55.0 °F 87% 30.23 in 10.0 mi ENE 4.6 mph - N/A   Mostly Cloudy
9:53 AM 62.1 °F 55.0 °F 78% 30.23 in 10.0 mi Variable 3.5 mph - N/A   Overcast
10:40 AM 66.0 °F 55.0 °F 68% 30.23 in 10.0 mi East 8.1 mph - N/A   Scattered Clouds
10:53 AM 66.9 °F 55.0 °F 66% 30.22 in 10.0 mi Variable 6.9 mph - N/A   Partly Cloudy
11:53 AM 68.0 °F 53.1 °F 59% 30.19 in 10.0 mi SE 8.1 mph - N/A   Partly Cloudy
12:53 PM 71.1 °F 52.0 °F 51% 30.17 in 10.0 mi SSE 9.2 mph 17.3 mph N/A   Mostly Cloudy
1:53 PM 72.0 °F 52.0 °F 49% 30.16 in 10.0 mi South 8.1 mph - N/A   Mostly Cloudy
2:53 PM 73.0 °F 53.1 °F 49% 30.14 in 10.0 mi SE 9.2 mph 17.3 mph N/A   Partly Cloudy
3:53 PM 73.0 °F 54.0 °F 51% 30.12 in 10.0 mi SSE 10.4 mph - N/A   Mostly Cloudy
4:53 PM 71.1 °F 54.0 °F 55% 30.11 in 10.0 mi SSE 9.2 mph - N/A   Mostly Cloudy
5:53 PM 70.0 °F 55.0 °F 59% 30.10 in 10.0 mi SSE 9.2 mph - N/A   Overcast
6:53 PM 69.1 °F 55.0 °F 61% 30.10 in 10.0 mi SSE 8.1 mph - N/A   Overcast
7:53 PM 68.0 °F 55.0 °F 63% 30.09 in 10.0 mi SE 6.9 mph - N/A   Overcast
8:53 PM 66.9 °F 55.9 °F 68% 30.11 in 10.0 mi Calm Calm - N/A   Mostly Cloudy
9:53 PM 66.0 °F 55.9 °F 70% 30.11 in 10.0 mi Calm Calm - N/A   Mostly Cloudy
10:53 PM 66.0 °F 55.9 °F 70% 30.10 in 10.0 mi Variable 3.5 mph - N/A   Overcast
11:53 PM 64.9 °F 57.0 °F 75% 30.10 in 10.0 mi Variable 3.5 mph - N/A   Overcast